Leesburg, FL

10:23 AM EST on February 27, 2017 (GMT -0500)
Leesburg Regional

Weather History for KLEE - December, 2012

Change the Weather History Date:

Saturday, December 22, 2012

  Actual Average Record
Temperature  
Mean Temperature 51 °F -  
Max Temperature 63 °F 68 °F 82 °F (1967)
Min Temperature 39 °F 47 °F 28 °F (1960)
Degree Days  
Heating Degree Days 14    
Growing Degree Days 1 (Base 50)    
Moisture  
Dew Point 25 °F    
Average Humidity 43    
Maximum Humidity 74    
Minimum Humidity 19    
Precipitation  
Precipitation 0.00 in - - ()
Sea Level Pressure  
Sea Level Pressure 30.26 in    
Wind  
Wind Speed 9 mph (NW)    
Max Wind Speed 13 mph    
Max Gust Speed 20 mph    
Visibility 10 miles    
Events      
Averages and records for this station are not official NWS values.
T = Trace of Precipitation, MM = Missing Value Source: NWS Daily Summary

Daily Weather History Graph

Daily Weather History Graph

Search for Another Location

Airport or City:

Trip Planner

Search our weather history database for the weather conditions in past years. The results will help you decide how hot, cold, wet, or windy it might be!

Date:

Astronomy

Dec. 22, 2012 Rise Set
Actual Time 7:16 AM EST 5:35 PM EST
Civil Twilight 6:50 AM EST 6:01 PM EST
Nautical Twilight 6:21 AM EST 6:30 PM EST
Astronomical Twilight 5:52 AM EST 6:59 PM EST
Moon 1:39 PM EST (12/22) 2:15 AM EST (12/22)
Length of Visible Light 11h 10m
Length of Day
10h 18m
Waxing Gibbous, 73% of the Moon is Illuminated
Dec 22
Waxing Gibbous
Dec 28
Full
Jan 4
Last Quarter
Jan 11
New
Jan 18
First Quarter

Hourly Weather History & Observations

Time (EST) Temp. Windchill Dew Point Humidity Pressure Visibility Wind Dir Wind Speed Gust Speed Precip Events Conditions
12:53 AM 44.1 °F 39.0 °F 24.1 °F 45% 30.23 in 10.0 mi NW 9.2 mph - N/A   Clear
1:53 AM 44.1 °F 39.0 °F 23.0 °F 43% 30.24 in 10.0 mi NW 9.2 mph - N/A   Clear
2:53 AM 43.0 °F 36.8 °F 23.0 °F 45% 30.24 in 10.0 mi NW 11.5 mph 19.6 mph N/A   Clear
3:53 AM 42.1 °F 35.7 °F 21.9 °F 45% 30.24 in 10.0 mi NW 11.5 mph - N/A   Clear
4:53 AM 41.0 °F 34.7 °F 21.9 °F 47% 30.23 in 10.0 mi NW 10.4 mph 17.3 mph N/A   Clear
5:53 AM 39.9 °F 33.9 °F 21.9 °F 49% 30.25 in 10.0 mi NW 9.2 mph - N/A   Clear
7:53 AM 39.9 °F 33.9 °F 21.0 °F 47% 30.29 in 10.0 mi NW 9.2 mph - N/A   Clear
8:53 AM 42.1 °F 36.1 °F 21.0 °F 43% 30.30 in 10.0 mi NW 10.4 mph 17.3 mph N/A   Clear
9:53 AM 46.9 °F - 21.0 °F 36% 30.32 in 10.0 mi NNW 12.7 mph - N/A   Clear
10:53 AM 50.0 °F - 21.0 °F 32% 30.32 in 10.0 mi NW 9.2 mph - N/A   Clear
11:53 AM 54.0 °F - 19.9 °F 26% 30.29 in 10.0 mi NNW 6.9 mph - N/A   Clear
12:53 PM 57.9 °F - 19.0 °F 22% 30.26 in 10.0 mi NW 9.2 mph - N/A   Clear
1:53 PM 60.1 °F - 24.1 °F 25% 30.24 in 10.0 mi WNW 6.9 mph - N/A   Clear
2:53 PM 62.1 °F - 19.9 °F 20% 30.22 in 10.0 mi WNW 6.9 mph - N/A   Clear
3:53 PM 63.0 °F - 19.9 °F 19% 30.22 in 10.0 mi WNW 8.1 mph - N/A   Clear
4:53 PM 61.0 °F - 21.0 °F 21% 30.22 in 10.0 mi NW 5.8 mph - N/A   Clear
5:53 PM 55.0 °F - 25.0 °F 31% 30.23 in 10.0 mi NW 5.8 mph - N/A   Clear
7:53 PM 46.0 °F - 34.0 °F 63% 30.25 in 10.0 mi Calm Calm - N/A   Clear
8:53 PM 48.0 °F - 35.1 °F 61% 30.27 in 10.0 mi WNW 3.5 mph - N/A   Clear
9:53 PM 44.1 °F 42.5 °F 35.1 °F 71% 30.27 in 10.0 mi NNW 3.5 mph - N/A   Clear
10:53 PM 45.0 °F 41.8 °F 37.0 °F 74% 30.28 in 10.0 mi NW 5.8 mph - N/A   Clear
11:53 PM 45.0 °F 41.8 °F 37.0 °F 74% 30.27 in 10.0 mi NW 5.8 mph - N/A   Clear